Darbhanga Airport

Jump to: basic info | weather | runways | comments

Related pages: nearby airports | nearby navaids | notams | map

Basic information (top)

Codes: VE89
Location: lon 26.192801, lat 85.916901, elev 156 ft / 48 m msl
Status: small_airport

Weather (top)

Current conditions for Lok Nayak Jayaprakash Airport 58nm (107km) SW (rec'd 2014/04/23 14:50Z):

VEPT 231450Z 26003KT 4000 HZ NSC 31/15 Q1005 NOSIG

Airport forecast for Lok Nayak Jayaprakash Airport 58nm (107km) SW (rec'd 2014/04/21 00:54Z):

TAF VEPT 212100Z 2200/2306 29004KT 2000 HZ FEW020 
      BECMG 2202/2204 30007KT 3000 HZ FEW020 SCT100 
      BECMG 2205/2207 5000 HZ 
      BECMG 2214/2216 30005KT 3000 HZ FEW020 
      BECMG 2222/2224 00000KT 2000 HZ 
      BECMG 2303/2305 31006KT 4000 HZ FEW020 SCT100

Runways (top)

10/28: 9,000 x 150 ft (2,743 x 46 m) — paved — not lighted

Latest comments (top)

flights to darbhanga: it will be honour to open darbhanga ... [read]

Darbhanga Airport: We would request Bihar and Central ... [read]

Airport darbhanga: I am Chandeshwar Mandal and I request ... [read]

started airport: plz started immediatly domestic service [read]

mojahid: jald chal u karo bhai [read]

See all 17 comments for Darbhanga Airport

More... (top)

See also NOTAMs and nearby airports and navaids, or visit the Darbhanga Airport page at the main OurAirports website..